Date,TemperatureHighF,TemperatureAvgF,TemperatureLowF,DewpointHighF,DewpointAvgF,DewpointLowF,HumidityHigh,HumidityAvg,HumidityLow,PressureMaxIn,PressureMinIn,WindSpeedMaxMPH,WindSpeedAvgMPH,GustSpeedMaxMPH,PrecipitationSumIn
2014-1-3,27.3,20.8,13.5,2.9,-4.0,-15.5,43,33,23,30.09,29.82,7,2,10,0.00
2014-1-4,43.7,32.4,19.9,9.4,4.2,1.0,46,31,20,29.82,29.59,12,4,17,0.00
2014-1-5,55.9,40.7,21.2,43.0,23.1,4.3,88,51,28,29.62,29.09,19,3,19,0.37
2014-1-6,21.2,5.7,-0.6,5.0,-10.8,-16.8,51,46,45,30.06,29.50,17,5,17,0.37
2014-1-7,19.0,9.4,-0.2,-3.6,-11.4,-16.5,45,38,25,30.12,29.94,10,3,10,0.00
2014-1-8,36.9,26.5,12.7,9.9,1.7,-8.6,47,34,27,30.06,29.94,9,2,9,0.00
2014-1-9,43.7,36.4,31.1,27.7,17.9,9.7,70,49,28,30.06,29.82,10,1,10,0.04
2014-1-10,53.6,44.8,36.5,48.0,36.6,27.5,84,73,65,29.85,29.29,13,2,13,0.17
2014-1-11,52.9,46.5,36.9,52.2,36.8,25.3,98,71,44,29.44,29.12,8,3,11,1.29
2014-1-12,52.9,39.6,33.8,31.6,28.2,19.5,78,66,27,29.68,29.23,6,2,11,1.29
2014-1-13,53.4,50.3,44.1,48.2,34.6,17.0,93,61,27,29.65,29.29,12,3,15,0.13
2014-1-14,54.9,43.2,32.0,43.5,24.6,12.7,87,50,28,29.59,29.35,12,3,13,0.00
2014-1-15,34.5,29.8,22.1,13.1,7.0,3.9,52,38,30,29.71,29.59,9,2,10,0.00
2014-1-16,37.9,33.1,21.7,28.8,17.0,6.6,78,53,31,29.62,29.35,11,3,13,0.04
2014-1-17,34.3,24.6,18.5,30.9,8.5,-1.0,87,51,33,29.71,29.35,9,2,10,0.00
2014-1-18,37.4,30.3,19.0,26.5,10.5,5.6,65,44,31,29.68,29.35,14,3,14,0.00
2014-1-19,39.0,36.4,28.9,26.7,15.1,10.6,64,42,33,29.65,29.38,12,4,12,0.00
2014-1-20,52.7,43.2,35.6,20.6,17.1,12.9,54,35,23,29.50,29.35,8,2,9,0.21
2014-1-21,35.6,19.7,10.4,27.4,-2.7,-15.6,75,38,23,29.82,29.35,20,4,23,0.00
2014-1-22,23.5,17.9,7.5,10.0,-4.3,-18.1,56,37,29,29.79,29.59,11,3,11,0.00
2014-1-23,17.8,11.0,6.1,-1.6,-13.6,-20.7,43,32,23,30.27,29.79,12,3,13,0.21
2014-1-24,27.1,18.8,4.1,-3.2,-10.6,-22.5,37,26,23,30.27,29.38,16,5,20,0.00
2014-1-25,44.8,29.1,18.9,20.4,3.7,-12.8,79,37,18,29.59,29.17,22,4,22,0.08
2014-1-26,51.6,40.5,20.8,24.9,11.9,-6.9,43,31,21,29.53,29.14,30,3,30,0.00
2014-1-27,48.4,17.4,8.2,24.6,-13.2,-21.1,41,24,22,30.03,29.26,18,5,30,0.00
2014-1-28,18.3,10.6,4.3,-13.3,-19.2,-24.5,24,24,23,30.06,29.91,9,2,10,0.00
2014-1-29,29.3,19.6,7.9,-5.0,-11.4,-21.4,34,24,20,29.97,29.82,8,1,10,0.00
2014-1-30,41.0,33.5,14.7,0.8,-2.7,-11.8,34,21,18,29.85,29.53,10,2,11,0.00
2014-1-31,48.7,41.5,32.4,9.2,4.1,-4.2,26,21,19,29.74,29.59,8,1,8,0.00
2014-2-1,62.8,53.2,41.4,42.8,20.5,8.3,75,30,16,29.59,29.44,13,3,13,0.04
2014-2-2,50.4,34.7,28.9,43.6,28.7,8.7,89,79,32,29.79,29.47,12,5,13,0.33
2014-2-3,36.3,30.1,25.2,24.6,14.5,10.0,83,53,34,29.91,29.68,10,2,12,0.29
2014-2-4,35.4,31.5,25.5,32.4,21.3,13.9,94,68,42,29.91,29.35,10,2,11,0.09
2014-2-5,34.3,30.6,27.0,33.3,22.8,16.6,96,73,56,30.00,29.32,0,0,0,0.00
2014-2-6,31.6,22.0,10.0,17.5,7.8,-4.5,68,54,42,30.03,29.94,0,0,0,1.70
2014-2-7,23.9,17.8,7.7,6.9,0.7,-7.1,56,47,34,30.09,29.88,0,0,0,0.00
2014-2-8,34.7,28.5,19.9,24.4,15.3,6.4,76,58,42,29.94,29.71,0,0,0,1.70
2014-2-9,39.4,31.5,23.7,26.5,17.9,6.4,80,58,39,29.85,29.65,10,2,10,1.74
2014-2-10,29.1,21.8,11.1,12.6,-1.1,-8.5,57,36,28,30.00,29.82,12,4,29,1.74
2014-2-11,27.5,18.3,8.4,0.5,-4.6,-10.9,44,36,23,30.06,29.88,10,3,10,0.00
2014-2-12,38.1,26.0,13.8,9.2,3.5,-2.2,49,38,24,29.91,29.50,7,2,7,0.00
2014-2-13,44.8,34.3,22.8,13.5,6.2,0.0,45,32,20,29.56,29.29,7,2,9,1.78
2014-2-14,45.1,34.4,22.8,30.9,19.4,8.7,87,55,34,29.50,29.17,17,3,19,0.21
2014-2-15,36.1,28.4,21.2,16.8,10.3,6.9,58,47,31,29.74,29.44,12,2,13,2.07
2014-2-16,42.1,34.6,27.1,18.4,15.0,10.1,55,45,33,29.85,29.53,11,2,11,0.00
2014-2-17,43.0,36.6,26.8,41.9,24.0,10.1,96,62,38,29.85,29.32,11,4,12,0.50
2014-2-18,59.9,49.5,35.1,36.0,19.3,9.7,78,34,17,29.74,29.35,13,3,13,2.57
2014-2-19,59.7,50.3,40.8,44.7,23.7,14.1,84,39,19,29.65,29.32,8,2,10,0.00
2014-2-20,70.5,58.5,40.8,56.3,38.1,19.7,84,48,32,29.59,29.12,18,5,20,0.12
2014-2-21,52.5,44.9,39.2,30.3,11.6,2.6,48,27,18,29.59,29.26,12,4,16,2.69
2014-2-22,65.1,49.9,34.5,21.4,12.2,1.2,41,23,15,29.68,29.50,13,2,14,0.00
2014-2-23,46.2,36.8,27.9,28.5,18.7,2.5,73,48,33,29.85,29.59,16,3,16,2.73
2014-2-24,43.0,33.2,25.2,6.4,2.4,-3.3,42,27,18,29.94,29.71,8,2,12,0.00
2014-2-25,41.4,33.2,26.8,11.4,5.0,-1.2,51,31,21,29.79,29.68,13,4,13,0.00
2014-2-26,29.5,23.4,17.6,11.1,-4.7,-10.2,53,29,20,29.82,29.50,13,4,224,0.00
2014-2-27,34.3,25.9,19.9,1.7,-5.7,-12.8,36,25,20,29.76,29.44,13,4,15,0.00
2014-2-28,45.7,32.9,18.3,6.9,-1.8,-13.1,30,22,18,29.80,29.59,11,2,11,0.00
2014-3-1,59.9,49.2,36.0,22.2,15.3,-2.3,40,26,19,29.74,29.65,10,1,11,0.00
2014-3-2,48.9,30.3,20.3,31.2,21.8,11.4,87,71,31,29.82,29.65,13,3,14,0.42
2014-3-3,27.3,21.2,17.1,14.1,1.8,-3.4,74,43,31,29.97,29.76,0,0,0,0.42
2014-3-4,38.1,26.4,15.6,9.4,2.0,-1.6,52,36,21,29.94,29.71,6,0,7,0.29
2014-3-5,45.5,30.2,22.3,15.1,9.3,3.2,61,43,20,29.85,29.71,10,0,10,0.00
2014-3-6,49.1,37.3,27.3,18.2,12.1,5.8,57,36,21,29.85,29.59,8,1,9,0.71
2014-3-7,59.9,45.6,29.5,21.1,17.6,10.0,66,36,17,29.65,29.53,5,0,7,0.00
2014-3-8,63.5,48.5,32.5,29.7,22.3,10.9,58,38,18,29.82,29.56,12,3,13,0.00
2014-3-9,53.1,41.5,29.7,22.8,11.5,5.9,48,30,18,29.88,29.59,9,1,12,0.00
2014-3-10,70.2,54.9,37.8,32.1,22.8,12.8,64,32,14,29.65,29.35,13,3,13,0.00
2014-3-11,76.6,63.7,49.6,41.6,28.0,18.1,52,29,13,29.38,29.00,10,2,13,0.00
2014-3-12,64.8,45.9,30.2,55.5,24.6,5.2,81,44,23,29.68,28.88,20,6,23,0.08
2014-3-13,47.1,38.0,24.6,12.2,3.3,-4.2,40,23,19,29.85,29.65,10,2,13,0.00
2014-3-14,65.8,55.1,37.4,21.1,15.1,1.0,30,21,15,29.71,29.41,17,6,20,0.00
2014-3-15,66.7,56.5,45.5,26.7,16.2,9.5,39,21,15,29.68,29.53,7,1,10,0.00
2014-3-16,48.7,37.4,30.7,23.8,13.2,3.7,74,38,24,29.62,29.47,14,4,18,0.00
2014-3-17,45.9,36.6,29.1,22.5,12.2,4.0,59,37,29,29.53,29.38,12,2,17,1.66
2014-3-18,55.8,47.1,33.8,38.6,29.1,17.8,69,50,37,29.56,29.35,9,2,10,0.92
2014-3-19,59.9,51.1,40.3,47.6,33.0,17.9,76,51,34,29.68,29.35,13,4,13,0.12
2014-3-20,61.0,47.3,33.6,22.8,16.7,9.7,56,32,16,29.76,29.59,10,1,10,0.00
2014-3-21,74.3,58.8,41.4,21.2,16.2,11.6,35,20,13,29.62,29.44,13,3,17,0.00
2014-3-22,60.4,52.5,41.5,19.6,15.5,11.3,39,24,17,29.79,29.44,13,4,15,0.00
2014-3-23,49.6,41.5,32.4,21.3,9.7,0.5,49,28,19,29.94,29.76,14,5,15,0.00
2014-3-24,50.2,38.0,28.2,17.6,7.7,1.2,50,29,19,29.94,29.65,13,2,14,0.00
2014-3-25,41.2,34.8,27.7,22.6,7.3,-5.3,64,34,21,29.85,29.59,19,4,24,0.00
2014-3-26,49.1,39.3,23.9,8.6,3.6,-5.1,34,22,19,29.97,29.79,6,1,9,0.00
2014-3-27,61.5,48.5,37.0,39.7,16.1,1.6,64,30,16,29.79,29.38,17,4,17,0.04
2014-3-28,69.6,58.4,49.8,51.6,36.9,25.8,85,49,22,29.65,29.38,13,3,17,0.17
2014-3-29,51.3,44.3,38.8,43.8,34.4,2.3,95,70,21,29.79,29.47,18,5,20,0.83
2014-3-30,61.3,47.5,34.3,26.4,18.2,9.7,63,35,16,29.85,29.71,10,2,13,0.83
2014-3-31,74.7,58.5,36.0,27.1,19.6,12.9,64,26,13,29.80,29.53,10,2,10,0.00
2014-4-1,79.9,66.3,53.2,39.9,23.9,13.7,50,22,12,29.68,29.50,14,3,14,0.04
2014-4-2,68.5,58.1,51.6,44.7,35.9,29.4,65,45,24,29.74,29.53,13,2,18,0.00
2014-4-3,66.4,60.7,55.9,63.1,57.2,41.1,98,89,53,29.59,29.29,15,2,15,1.12
2014-4-4,66.0,55.0,45.1,61.1,39.3,15.6,98,61,30,29.68,29.17,15,4,15,0.91
2014-4-5,56.7,47.6,39.4,23.0,16.5,10.7,49,30,17,29.82,29.65,14,2,14,0.91
2014-4-6,66.4,53.1,36.7,29.1,20.4,14.3,67,31,15,29.76,29.38,10,1,10,0.91
2014-4-7,59.4,53.0,47.3,58.2,46.0,22.0,98,79,27,29.50,29.00,11,2,12,0.95
2014-4-8,67.1,52.3,43.9,45.9,39.5,24.8,88,65,25,29.50,29.26,12,1,12,0.05
2014-4-9,70.2,54.9,43.0,41.1,23.1,11.0,89,38,14,29.68,29.47,7,1,8,0.00
2014-4-10,79.9,64.2,43.5,28.0,23.4,17.3,51,24,12,29.68,29.47,15,4,18,0.00
2014-4-11,79.3,67.5,57.2,38.8,31.7,20.9,46,27,17,29.68,29.53,10,2,12,0.00
2014-4-12,84.6,70.4,52.9,48.0,35.8,27.0,67,33,13,29.74,29.47,16,3,16,0.00
2014-4-13,86.5,74.0,68.0,43.8,28.3,24.4,38,19,13,29.56,29.29,13,5,18,0.00
2014-4-14,74.1,41.2,35.8,54.2,34.3,24.5,90,79,16,29.56,29.26,17,4,17,0.58
2014-4-15,46.8,35.3,32.7,37.2,12.9,2.7,90,41,19,29.94,29.41,13,1,17,0.24
2014-4-16,59.0,42.5,32.7,22.7,16.2,4.8,48,35,17,30.00,29.76,10,0,57,0.00
2014-4-17,73.6,50.2,39.4,31.0,25.0,9.6,54,39,13,29.94,29.82,9,0,12,0.00
2014-4-18,76.3,55.7,46.8,30.7,27.8,16.1,52,35,13,29.91,29.76,6,1,6,0.00
2014-4-19,76.8,53.2,47.8,30.3,24.4,14.6,50,34,13,29.85,29.76,10,0,15,0.00
2014-4-20,82.8,57.2,47.8,36.8,32.2,18.3,51,40,11,29.85,29.65,5,0,8,0.00
2014-4-21,83.7,64.8,53.6,49.7,43.1,24.6,61,48,14,29.68,29.38,5,0,8,0.00
2014-4-22,76.1,53.3,47.3,49.2,16.3,10.1,60,24,13,29.62,29.38,11,3,14,0.00
2014-4-23,67.6,54.5,47.3,20.5,17.2,10.1,28,23,15,29.71,29.56,8,1,11,0.00
2014-4-24,78.1,62.2,52.5,56.7,42.9,14.9,82,55,13,29.65,29.17,8,1,12,0.05
2014-4-25,74.3,54.1,49.3,57.2,34.4,18.8,81,49,13,29.56,29.17,8,0,20,0.09
2014-4-26,84.6,58.8,49.5,40.9,35.4,19.2,64,43,11,29.56,29.47,6,0,9,0.00
2014-4-27,84.6,65.4,56.1,63.0,54.6,31.5,97,72,16,29.59,29.17,11,2,15,1.20
2014-4-28,69.6,63.5,62.2,64.4,62.5,54.0,98,97,66,29.44,29.12,6,1,15,7.01
2014-4-29,79.3,57.8,55.9,63.7,53.3,24.7,98,88,16,29.44,29.12,6,1,12,7.14
2014-4-30,75.4,57.6,53.4,56.6,39.6,27.4,97,54,18,29.53,29.35,4,1,9,0.04
2014-5-1,65.5,51.5,46.8,37.8,28.8,17.0,60,42,16,29.56,29.47,10,0,10,0.00
2014-5-2,64.2,47.9,45.5,39.4,34.8,24.8,75,62,24,29.56,29.47,4,0,7,0.00
2014-5-3,77.2,56.2,45.5,41.5,32.4,15.4,74,43,13,29.56,29.47,10,0,12,0.00
2014-5-4,86.7,66.2,52.0,39.9,26.8,21.7,60,24,12,29.59,29.47,6,1,9,0.00
2014-5-5,92.8,74.7,55.9,38.0,30.5,21.6,39,21,12,29.56,29.32,10,1,10,0.00
2014-5-6,90.0,73.6,57.6,45.9,37.3,30.5,50,29,12,29.50,29.41,6,0,9,0.00
2014-5-7,91.4,76.6,63.1,45.0,36.4,27.0,48,25,12,29.56,29.44,11,2,11,10.16
2014-5-8,91.6,79.7,68.5,48.1,41.4,29.5,45,28,12,29.68,29.56,10,3,11,1.91
2014-5-9,80.8,73.1,63.5,59.5,46.2,32.0,86,42,21,29.56,29.47,8,1,10,0.42
2014-5-10,74.1,66.0,60.8,69.0,61.8,49.8,98,87,61,29.62,29.53,7,0,17,0.41
2014-5-11,83.1,69.4,61.3,67.7,60.7,53.0,98,77,38,29.71,29.56,7,0,7,1.62
2014-5-12,90.5,78.4,66.7,67.3,53.5,44.0,96,47,20,29.68,29.53,6,1,12,1.62
2014-5-13,92.8,79.0,69.3,60.8,49.1,30.2,69,40,13,29.68,29.56,12,2,12,0.00
2014-5-14,70.2,65.6,61.5,66.6,60.5,56.5,98,84,63,29.68,29.41,9,2,9,1.00
2014-5-15,66.0,57.4,50.5,64.5,42.7,24.8,98,63,24,29.68,29.38,13,1,13,1.72
2014-5-16,67.3,55.0,48.0,50.6,34.9,15.4,91,53,15,29.71,29.56,8,1,8,0.00
2014-5-17,68.4,53.1,45.7,39.8,29.6,13.7,75,48,15,29.82,29.68,8,0,8,0.00
2014-5-18,73.4,58.3,43.5,39.6,27.1,15.8,78,37,13,29.88,29.76,9,1,9,0.00
2014-5-19,81.7,63.8,47.3,42.0,30.4,19.6,75,36,12,29.88,29.65,7,0,7,0.34
2014-5-20,89.4,73.3,59.4,50.2,38.3,28.3,55,31,15,29.68,29.53,10,2,10,0.00
2014-5-21,90.1,76.2,68.0,53.9,47.9,39.1,52,37,22,29.62,29.50,11,1,11,0.00
2014-5-22,89.2,74.8,64.6,67.9,51.4,32.5,96,52,16,29.65,29.56,19,1,19,0.83
2014-5-23,82.2,71.6,64.0,50.6,34.4,21.6,60,29,13,29.76,29.62,8,2,11,0.00
2014-5-24,86.2,70.5,56.5,49.7,36.8,24.6,74,35,13,29.82,29.68,6,0,6,0.00
2014-5-25,78.6,70.5,61.0,52.7,42.4,33.8,71,38,21,29.74,29.65,7,0,7,0.04
2014-5-26,92.7,74.7,61.3,55.9,50.2,40.4,79,49,17,29.74,29.59,6,0,6,0.00
2014-5-27,91.6,79.1,70.0,61.5,50.8,36.2,74,42,18,29.65,29.53,10,0,10,0.05
2014-5-28,89.2,76.8,69.4,66.7,54.7,40.9,87,50,20,29.62,29.50,6,0,6,0.45
2014-5-29,88.9,78.3,68.5,70.2,59.7,47.2,97,59,25,29.65,29.53,6,0,6,0.04
2014-5-30,86.0,75.0,67.8,72.6,66.7,52.3,98,78,35,29.71,29.59,7,0,10,0.71
2014-5-31,90.5,77.5,34.2,70.1,39.3,0.0,95,30,12,29.74,29.62,8,1,11,0.08
2014-6-1,93.0,74.7,64.4,70.5,57.2,37.3,97,60,21,29.74,29.59,9,0,9,0.26
2014-6-2,85.6,76.2,69.1,70.8,60.5,50.2,98,63,31,29.71,29.56,9,2,9,0.00
2014-6-3,90.9,79.1,72.5,69.5,61.5,50.7,83,59,26,29.62,29.47,5,0,6,0.00
2014-6-4,89.8,78.2,34.2,70.7,60.5,0.0,92,57,29,29.53,29.29,12,2,13,0.00
2014-6-5,81.1,71.3,64.6,57.7,46.8,37.5,78,44,23,29.53,29.38,10,1,13,0.00
2014-6-6,87.1,74.4,61.9,57.9,40.7,28.1,82,36,13,29.59,29.50,7,0,8,0.00
2014-6-7,90.5,76.6,34.2,52.6,40.7,0.0,72,32,12,29.62,29.35,8,0,8,0.00
2014-6-8,79.0,71.9,66.7,58.8,49.7,38.1,69,47,24,29.56,29.32,10,2,11,0.00
2014-6-9,82.0,72.2,66.2,60.0,47.5,36.3,78,45,20,29.56,29.41,6,0,7,0.21
2014-6-10,80.8,71.4,66.9,67.9,62.9,48.3,93,76,41,29.47,29.35,6,0,6,0.21
2014-6-11,84.4,72.6,66.7,68.6,61.3,49.0,93,70,32,29.38,29.32,6,0,8,0.37
2014-6-12,86.4,74.7,65.1,65.2,50.8,37.4,96,50,18,29.50,29.35,8,0,11,0.37
2014-6-13,83.7,73.0,61.9,57.8,38.3,20.3,67,34,12,29.65,29.41,10,2,11,0.00
2014-6-14,85.8,70.7,56.7,70.5,29.8,19.6,97,25,11,29.74,29.59,6,1,8,0.79
2014-6-15,94.8,82.2,61.5,48.6,38.0,28.9,46,24,11,29.68,29.53,6,1,8,0.00
2014-6-16,97.3,83.6,72.7,53.9,47.8,37.7,47,31,14,29.74,29.59,6,1,6,0.00
2014-6-17,98.1,85.7,72.9,57.4,49.2,42.2,50,31,16,29.68,29.56,10,2,10,0.00
2014-6-18,98.4,85.1,75.2,63.5,52.1,38.2,64,36,13,29.68,29.59,7,2,7,0.00
2014-6-19,98.1,85.6,51.8,63.2,51.0,37.9,65,34,13,29.71,29.59,6,1,8,0.00
2014-6-20,93.4,78.2,71.8,70.9,61.4,43.0,94,62,19,29.65,29.50,13,1,15,0.13
2014-6-21,93.9,81.2,70.5,73.6,52.2,30.9,98,47,11,29.56,29.47,8,1,10,0.04
2014-6-22,96.4,82.7,70.3,65.6,51.7,38.1,79,40,14,29.56,29.41,6,1,6,0.04
2014-6-23,99.0,81.1,71.2,68.9,57.7,36.0,89,53,13,29.56,29.47,8,1,8,1.30
2014-6-24,90.1,77.1,70.5,72.0,64.7,49.5,96,70,28,29.56,29.44,6,1,6,0.29
2014-6-25,93.2,78.8,71.4,73.4,55.0,30.5,98,54,12,29.62,29.47,6,1,10,6.85
2014-6-26,95.2,81.9,71.1,63.5,46.6,30.3,74,35,11,29.65,29.53,6,1,6,0.00
2014-6-27,96.8,81.1,70.3,64.3,53.2,33.0,72,45,11,29.65,29.56,8,1,12,0.00
2014-6-28,92.5,80.0,73.4,67.5,60.3,44.7,77,55,20,29.74,29.59,6,2,6,0.00
2014-6-29,88.9,79.4,72.7,65.7,57.1,48.5,72,49,28,29.71,29.59,6,2,6,0.00
2014-6-30,97.0,84.1,71.1,67.1,58.5,46.0,79,46,19,29.62,29.41,7,2,7,0.00
2014-7-1,98.8,82.9,70.7,68.4,58.6,39.0,92,50,17,29.53,29.35,20,2,20,0.75
2014-7-2,91.8,76.2,68.7,70.1,57.1,40.5,96,58,18,29.62,29.47,9,2,9,0.21
2014-7-3,77.9,69.7,49.6,52.6,44.4,24.5,69,42,23,29.79,29.62,8,2,10,0.21
2014-7-4,85.3,72.0,59.2,53.7,35.7,22.0,78,33,11,29.88,29.76,12,2,12,0.00
2014-7-5,90.7,74.9,59.7,51.0,37.7,26.7,71,31,12,29.88,29.68,6,1,8,0.00
2014-7-6,93.2,80.2,65.7,53.6,39.4,28.4,65,27,11,29.71,29.53,7,2,8,0.00
2014-7-7,94.8,80.6,71.6,55.2,46.8,31.2,50,32,13,29.56,29.35,8,3,12,0.00
2014-7-8,92.3,80.9,72.1,71.2,52.2,39.4,85,42,17,29.50,29.35,8,2,8,0.04
2014-7-9,91.8,79.8,69.6,65.6,44.1,28.1,83,36,12,29.62,29.47,10,1,12,0.04
2014-7-10,90.7,79.8,69.8,49.1,36.8,27.0,44,24,12,29.74,29.59,10,2,10,0.00
2014-7-11,94.8,80.3,66.9,48.1,38.1,28.1,49,26,11,29.79,29.68,7,1,8,0.00
2014-7-12,91.4,84.8,71.1,52.6,45.4,39.7,43,27,17,29.74,29.59,4,1,5,0.00
2014-7-13,101.3,85.3,73.6,70.7,52.2,32.7,89,39,10,29.65,29.47,11,2,11,0.91
2014-7-14,89.4,77.0,69.8,74.6,64.1,45.1,97,70,28,29.56,29.41,13,1,13,0.17
2014-7-15,82.4,71.4,62.4,67.6,39.2,23.4,92,38,14,29.56,29.44,12,2,13,0.00
2014-7-16,80.8,69.0,59.5,51.0,38.6,24.6,72,37,15,29.65,29.53,9,1,10,0.00
2014-7-17,84.7,71.7,59.7,53.7,35.6,19.9,77,33,11,29.71,29.59,10,2,12,2.08
2014-7-18,73.2,67.7,65.1,60.7,48.8,32.6,82,53,26,29.76,29.65,6,1,6,2.08
2014-7-19,78.1,72.1,65.8,60.7,54.4,46.7,83,56,34,29.68,29.59,6,1,6,0.00
2014-7-20,89.6,76.8,69.8,62.8,51.9,38.5,78,47,18,29.65,29.56,10,2,10,0.00
2014-7-21,91.6,79.2,34.2,65.2,50.5,0.0,83,43,14,29.71,29.59,8,1,8,0.00
2014-7-22,98.4,82.9,70.3,64.1,52.6,37.7,77,41,13,29.71,29.59,6,1,6,0.00
2014-7-23,89.2,80.4,71.4,66.9,56.1,40.8,76,47,19,29.68,29.50,12,2,15,0.00
2014-7-24,83.8,74.2,64.6,59.7,38.2,24.4,67,32,14,29.65,29.53,17,4,17,0.00
2014-7-25,87.1,74.3,61.2,51.4,38.4,27.5,69,32,13,29.68,29.50,6,1,6,0.00
2014-7-26,88.3,73.4,66.6,68.2,54.4,41.3,89,55,24,29.59,29.44,7,1,7,0.91
2014-7-27,92.7,78.9,69.8,81.7,59.3,41.8,98,57,24,29.53,29.29,10,2,13,0.70
2014-7-28,80.6,72.0,61.5,53.3,40.0,27.8,64,33,20,29.62,29.41,10,3,13,0.00
2014-7-29,81.5,69.1,56.5,52.8,35.8,25.1,64,33,14,29.71,29.59,9,1,10,7.63
2014-7-30,87.6,72.6,40.6,56.3,43.0,27.2,78,42,13,29.68,29.59,5,1,6,0.00
2014-7-31,89.6,75.8,46.2,57.6,42.6,27.0,77,37,12,29.68,29.59,6,1,6,0.00
2014-8-1,91.8,76.5,41.2,58.8,42.4,27.9,82,37,12,29.68,29.59,6,1,6,0.00
2014-8-2,88.2,75.7,68.0,55.8,42.5,28.1,63,34,13,29.74,29.59,8,2,10,0.00
2014-8-3,89.2,76.0,64.8,59.8,43.6,27.5,79,39,13,29.74,29.62,6,1,7,0.00
2014-8-4,92.3,78.0,65.8,57.9,41.5,27.0,73,35,12,29.74,29.59,6,1,7,0.00
2014-8-5,91.4,78.5,66.9,57.4,45.7,34.5,69,36,15,29.68,29.56,4,1,6,0.00
2014-8-6,91.6,79.4,70.0,62.0,50.1,30.3,73,41,12,29.62,29.53,10,2,12,0.00
2014-8-7,84.4,76.9,71.6,55.8,45.8,0.0,80,35,20,29.68,29.53,7,1,7,0.00
2014-8-8,76.3,72.3,68.2,70.0,63.5,42.6,91,75,32,29.62,29.53,9,1,9,1.42
2014-8-9,82.2,75.8,71.6,75.8,67.9,58.6,98,78,46,29.59,29.50,7,1,8,0.04
2014-8-10,90.7,79.0,34.2,76.3,65.1,0.0,98,68,24,29.59,29.47,4,0,5,0.21
2014-8-11,91.6,76.4,70.7,71.9,66.8,50.1,98,77,25,29.50,29.35,9,0,11,0.50
2014-8-12,82.8,73.7,64.8,71.4,50.4,32.0,98,52,17,29.59,29.41,11,2,573,0.00
2014-8-13,84.4,74.5,63.5,52.5,36.9,26.0,67,30,13,29.68,29.56,10,2,10,0.00
2014-8-14,88.3,74.5,63.5,57.0,47.8,36.6,76,44,18,29.68,29.53,4,1,7,0.00
2014-8-15,84.0,72.7,63.5,52.5,36.2,24.2,51,29,14,29.71,29.56,10,2,12,0.04
2014-8-16,86.0,71.3,64.2,66.7,52.2,38.6,91,54,25,29.62,29.56,4,0,4,0.21
2014-8-17,74.5,71.7,69.3,73.9,70.5,64.2,98,96,82,29.59,29.38,6,0,6,10.43
2014-8-18,83.3,76.2,71.8,74.8,66.8,55.3,98,76,39,29.47,29.38,5,0,5,0.00
2014-8-19,91.6,79.7,70.3,73.9,60.5,44.6,98,59,21,29.47,29.35,5,1,5,0.00
2014-8-20,91.9,78.7,71.6,68.8,60.0,46.3,83,56,21,29.62,29.41,15,1,15,0.00
2014-8-21,92.5,81.1,72.3,66.4,61.1,47.2,79,54,22,29.68,29.53,4,1,6,0.00
2014-8-22,92.5,81.4,73.8,71.8,64.2,54.1,93,61,29,29.62,29.50,8,1,8,0.29
2014-8-23,93.2,78.4,72.3,74.5,68.6,53.3,98,77,30,29.59,29.50,6,0,6,0.54
2014-8-24,92.8,81.2,72.5,72.9,64.2,47.1,98,63,22,29.65,29.50,6,1,6,0.00
2014-8-25,93.9,83.2,74.1,72.8,56.9,40.7,92,48,16,29.65,29.56,7,1,7,0.00
2014-8-26,93.7,82.0,74.3,68.8,55.8,37.0,82,47,14,29.74,29.59,12,1,15,0.00
2014-8-27,94.1,79.7,72.9,71.1,61.1,40.5,93,61,17,29.71,29.59,10,1,10,0.12
2014-8-28,91.8,80.7,72.5,73.9,58.4,42.1,98,54,18,29.65,29.53,6,1,6,0.12
2014-8-29,87.1,76.9,73.2,60.7,57.8,53.9,64,53,34,29.65,29.59,6,1,7,0.00
2014-9-1,90.5,81.7,77.2,65.8,58.4,51.1,66,47,27,29.62,29.50,8,2,8,0.63
2014-9-2,88.9,77.9,70.2,72.5,62.9,49.9,92,63,29,29.62,29.47,12,2,12,0.33
2014-9-3,89.2,78.9,70.5,71.3,55.3,38.5,98,52,18,29.68,29.59,6,1,6,0.33
2014-9-4,92.1,80.7,71.1,69.9,56.8,40.2,89,51,17,29.71,29.59,4,0,4,0.00
2014-9-5,94.1,80.5,73.2,70.2,61.4,43.4,85,59,18,29.76,29.65,5,1,6,0.00
2014-9-8,91.2,75.4,63.9,55.1,35.4,25.9,66,27,14,29.68,29.59,8,1,8,0.00
2014-9-9,87.1,73.1,61.5,57.2,46.7,29.2,80,45,13,29.68,29.50,6,1,6,0.00
2014-9-10,84.7,77.7,69.6,68.2,58.5,51.6,93,53,35,29.56,29.35,10,3,17,4.08
2014-9-11,77.9,68.0,62.2,71.6,58.2,43.4,98,73,42,29.74,29.41,10,3,17,14.49
2014-9-12,68.4,64.6,61.3,47.3,43.0,38.6,57,46,35,29.79,29.68,10,3,172,0.00
2014-9-13,67.5,61.9,53.6,48.4,34.0,20.1,67,38,17,29.91,29.71,10,2,172,0.00
2014-9-14,72.7,61.5,51.6,46.6,35.6,21.0,72,44,16,29.91,29.74,7,1,7,2.99
2014-9-15,76.6,65.2,53.8,53.7,42.5,31.1,79,48,20,29.82,29.62,8,1,10,0.00
2014-9-16,70.9,65.4,57.9,55.2,47.7,35.9,75,55,28,29.74,29.65,10,3,10,17.35
2014-9-17,72.0,61.8,53.2,50.2,40.4,29.1,82,51,22,29.71,29.53,5,1,10,0.00
2014-9-18,75.0,66.5,58.1,47.4,34.5,23.4,66,35,16,29.68,29.59,6,1,10,0.00
2014-9-19,79.0,66.4,55.0,45.4,36.2,25.9,69,37,15,29.74,29.59,6,1,8,0.00
2014-9-20,84.6,71.2,61.3,61.4,50.0,39.0,82,51,21,29.68,29.53,5,1,9,0.00
2014-9-21,81.7,73.4,64.0,60.5,39.7,20.5,65,36,12,29.65,29.41,8,2,13,0.00
2014-9-22,68.4,61.6,55.9,36.0,28.4,17.9,47,30,15,29.88,29.65,9,3,11,0.00
2014-9-23,74.3,63.4,49.8,42.5,28.1,18.5,73,33,13,29.91,29.82,6,1,10,0.00
2014-9-24,78.4,64.1,52.2,44.1,35.9,24.4,72,41,15,29.94,29.82,4,1,8,0.00
2014-9-25,80.1,69.0,56.3,48.7,35.4,22.0,74,36,12,29.85,29.74,6,1,8,0.00
2014-9-26,83.7,69.5,58.1,52.5,40.3,24.6,76,42,14,29.85,29.71,7,1,10,0.00
2014-9-27,83.8,70.9,61.5,50.3,42.8,30.5,65,41,16,29.82,29.65,6,1,8,0.00
2014-9-28,85.1,75.0,66.0,55.6,44.4,28.1,69,38,13,29.74,29.59,3,0,4,0.00
2014-9-29,85.1,72.4,64.6,57.5,43.8,22.0,75,43,12,29.62,29.47,5,0,10,0.00
2014-9-30,85.6,70.7,58.6,53.6,41.3,27.0,79,42,13,29.56,29.44,7,1,10,0.00
2014-10-1,82.0,70.5,59.7,47.5,40.2,27.5,64,37,14,29.59,29.50,4,0,8,0.00
2014-10-2,88.9,74.5,61.7,52.8,42.2,29.8,71,36,13,29.62,29.38,6,2,8,0.00
2014-10-3,77.2,66.7,52.0,63.2,48.9,31.1,80,55,24,29.53,29.20,6,3,10,0.00
2014-10-4,60.4,51.2,45.5,32.1,23.3,11.0,55,37,17,29.56,29.41,5,2,10,0.00
2014-10-5,65.7,54.8,41.7,33.5,22.2,15.8,52,30,15,29.53,29.35,5,1,6,0.00
2014-10-6,68.2,59.9,54.3,58.5,46.3,33.4,84,64,28,29.41,29.29,4,1,6,0.00
2014-10-7,73.4,62.1,0.0,60.9,48.5,0.0,81,62,35,29.50,29.32,8,1,8,0.00
2014-10-8,73.9,61.9,53.1,47.1,36.1,19.6,74,45,13,29.71,29.47,6,1,8,0.00
2014-10-9,69.8,62.8,53.4,50.6,40.7,32.4,75,46,25,29.76,29.59,6,1,8,0.00
2014-10-10,61.0,57.9,52.7,54.7,52.3,41.5,90,82,49,29.68,29.59,7,2,8,0.00
2014-10-11,60.3,57.0,52.7,51.7,40.8,31.9,89,57,35,29.76,29.59,6,1,8,0.00
2014-10-12,69.8,62.8,55.0,60.2,46.3,35.5,83,56,40,29.71,29.53,5,0,6,0.00
2014-10-13,76.5,69.1,64.9,68.1,59.6,45.6,98,75,34,29.59,29.29,10,1,10,0.00
2014-10-14,68.7,64.8,59.0,65.2,55.6,40.2,97,75,39,29.35,29.12,57,2,57,0.00
2014-10-15,59.5,57.6,55.9,54.8,50.6,40.7,92,78,50,29.38,29.29,5,0,6,0.25
2014-10-16,61.5,57.3,53.2,53.7,49.3,43.6,91,75,52,29.50,29.35,4,0,6,0.25
2014-10-17,73.6,61.7,51.4,50.3,38.4,23.1,86,50,16,29.47,29.32,10,1,10,0.08
2014-10-18,61.3,56.2,51.1,35.4,28.9,22.3,45,36,24,29.76,29.44,11,2,13,0.00
2014-10-19,60.6,53.5,48.0,40.1,28.8,20.4,73,41,22,29.85,29.65,7,1,7,0.00
2014-10-20,67.6,56.1,47.7,50.4,42.9,34.3,85,64,29,29.68,29.47,6,1,224,0.71
2014-10-21,63.3,55.4,49.1,47.4,31.3,16.4,81,45,18,29.79,29.53,10,2,11,0.00
2014-10-22,60.1,52.3,44.6,33.6,26.8,20.5,65,39,22,29.91,29.74,10,2,10,0.00
2014-10-23,62.1,52.1,41.9,38.9,30.6,20.6,74,48,21,29.85,29.68,4,0,5,0.00
2014-10-24,66.4,53.8,43.5,45.0,35.0,22.5,81,55,20,29.74,29.59,5,0,5,0.00
2014-10-25,73.9,62.6,49.5,49.9,44.6,28.1,80,55,28,29.65,29.53,4,0,5,0.00
2014-10-26,71.1,59.6,50.2,49.0,31.2,15.4,81,41,14,29.62,29.50,19,0,19,0.00
2014-10-27,81.9,63.8,51.8,44.9,36.9,27.0,67,43,14,29.56,29.41,8,1,10,0.00
2014-10-28,70.3,64.2,56.7,60.0,48.0,39.4,77,58,33,29.68,29.47,15,1,15,0.17
2014-10-29,64.9,59.0,47.8,50.6,24.4,11.9,76,32,15,29.74,0.00,9,2,14,0.63
2014-10-30,57.4,48.4,39.9,31.8,24.7,15.2,70,42,19,29.79,29.62,6,0,6,0.00
2014-10-31,52.9,46.3,37.4,39.0,28.9,14.3,72,51,29,29.68,29.56,18,2,18,0.00
2014-11-1,45.0,39.3,35.4,29.2,15.3,8.1,73,39,22,29.97,29.65,20,5,20,0.00
2014-11-2,51.6,40.2,30.0,22.3,14.3,5.6,67,38,19,30.09,29.94,6,0,6,0.00
2014-11-3,66.4,54.8,40.3,20.4,14.5,11.3,42,21,15,30.00,29.76,7,1,7,0.00
2014-11-4,67.5,60.3,52.2,48.8,23.7,10.0,74,29,15,29.79,29.68,6,2,6,0.04
2014-11-5,58.1,56.3,52.9,52.3,47.9,40.2,86,74,59,29.82,29.68,6,0,6,0.04
2014-11-6,56.5,49.8,44.8,53.1,34.0,18.1,89,57,34,29.76,29.50,12,1,12,0.00
2014-11-7,51.3,45.7,38.3,21.2,14.0,8.3,49,28,19,29.82,29.59,10,2,10,0.00
2014-11-8,58.3,46.2,35.6,27.5,22.8,15.9,65,42,22,29.65,29.47,13,1,13,0.00
2014-11-9,56.8,46.0,36.1,26.8,18.9,9.7,63,37,17,29.68,29.53,5,0,8,0.00
2014-11-10,66.0,50.9,37.0,27.1,20.9,13.1,62,35,15,29.56,29.41,7,2,8,0.00
2014-11-11,66.9,56.5,37.9,47.1,27.1,12.4,63,34,17,29.79,29.38,10,3,12,0.04
2014-11-12,43.7,39.0,33.6,19.9,12.4,6.4,47,33,23,29.88,29.74,10,3,12,0.00
2014-11-13,34.3,30.9,27.3,8.2,1.1,-6.6,35,27,20,29.94,29.82,11,2,13,0.00
2014-11-14,36.7,29.8,24.4,6.8,2.3,-3.9,46,32,19,29.97,29.91,7,1,7,0.00
2014-11-15,41.9,34.6,22.8,13.8,4.9,-0.4,54,30,18,30.06,29.76,7,0,8,0.00
2014-11-16,44.8,39.5,34.2,29.7,19.2,0.0,77,46,26,29.79,29.44,6,0,6,0.13
2014-11-17,35.4,29.3,19.4,28.3,14.3,1.1,77,55,34,29.76,29.41,4,0,5,0.04
2014-11-18,28.2,21.7,17.4,3.8,-2.1,-5.7,47,36,23,29.88,29.74,8,1,8,0.00
2014-11-19,48.2,34.7,17.8,10.0,5.5,0.1,46,30,19,29.85,29.53,13,3,13,0.00
2014-11-20,36.9,29.9,23.7,8.3,2.0,-2.4,47,30,22,29.94,29.56,7,0,8,0.00
2014-11-21,40.6,31.7,21.6,10.4,4.0,-1.7,56,34,18,30.09,29.88,6,0,7,0.00
2014-11-22,65.1,51.7,37.6,24.6,15.0,1.2,42,24,15,29.94,29.59,13,2,13,0.00
2014-11-23,60.6,56.8,52.9,56.1,39.0,17.5,92,57,22,29.94,28.88,13,2,13,0.33
2014-11-24,62.6,54.2,40.5,55.5,32.6,18.0,87,45,28,29.59,28.88,20,6,25,0.41
2014-11-25,47.5,38.9,31.6,24.3,14.7,6.4,67,40,19,29.79,29.56,6,1,6,0.04
2014-11-26,45.7,36.1,29.3,22.5,15.8,10.5,61,45,25,29.76,29.59,6,1,6,0.45
2014-11-27,38.3,33.2,27.0,25.2,12.3,5.0,70,43,30,30.06,29.68,9,2,9,0.05
2014-11-28,42.6,34.9,26.2,12.2,7.2,2.3,46,32,21,30.03,29.62,8,1,12,0.00
2014-11-29,59.9,50.0,34.3,39.1,21.5,7.9,46,33,27,29.65,29.44,15,4,15,0.00
2014-11-30,70.2,63.9,57.7,51.6,39.2,30.4,72,41,23,29.74,29.47,15,5,15,0.58
2014-12-1,64.8,42.1,36.1,49.4,33.0,20.8,83,70,41,30.06,29.65,14,4,15,1.12
2014-12-2,42.1,39.1,36.1,34.1,29.1,20.8,73,67,53,30.03,29.76,6,1,8,1.03
2014-12-3,46.9,39.5,34.7,32.5,24.3,15.2,73,56,28,29.97,29.76,6,2,8,0.00
2014-12-4,42.6,39.3,34.9,40.2,32.1,24.5,91,75,65,29.97,29.79,6,1,6,0.21
2014-12-5,56.1,47.4,41.7,55.6,45.5,38.1,98,93,86,29.82,29.56,3,0,4,1.20
2014-12-6,56.7,46.0,42.8,56.1,37.0,25.5,98,72,50,29.97,29.56,15,6,17,0.33
2014-12-7,47.3,41.6,34.2,28.6,13.5,9.3,80,32,22,30.15,29.85,10,2,10,0.00
2014-12-8,53.1,43.7,34.7,31.8,22.7,15.5,61,45,26,29.91,29.71,8,1,186,0.00
2014-12-9,44.4,41.3,39.2,31.8,21.9,17.7,61,46,39,29.88,29.68,12,4,12,0.00
2014-12-10,43.0,39.7,35.4,20.6,13.4,7.3,43,34,23,29.91,29.76,10,4,12,0.00
2014-12-11,43.3,36.4,29.5,14.5,8.6,4.5,53,32,20,29.91,29.76,10,2,10,0.00
2014-12-12,44.6,34.9,27.0,21.2,16.3,10.5,66,48,25,30.00,29.88,6,0,7,0.00
2014-12-13,50.2,45.7,41.5,27.0,23.3,19.8,48,41,31,29.94,29.76,4,0,4,0.00
2014-12-14,50.2,47.7,45.5,35.7,31.2,25.5,58,53,44,29.79,29.65,6,0,7,0.00
2014-12-15,56.5,48.1,43.2,46.3,26.5,17.4,69,44,28,29.71,29.32,10,3,13,0.00
2014-12-16,56.5,44.2,36.7,47.8,29.7,20.3,80,57,42,29.82,29.29,10,4,13,0.05
2014-12-17,39.0,35.2,30.7,26.2,14.3,9.8,60,42,32,29.91,29.76,8,2,10,0.00
2014-12-18,36.1,32.9,30.6,12.5,10.9,8.7,42,40,32,29.88,29.79,7,1,10,0.00
2014-12-19,35.1,32.4,32.2,11.3,10.8,10.0,41,40,35,29.85,29.79,8,0,8,0.04
2014-12-20,39.9,33.4,27.0,16.8,13.5,9.9,65,44,29,29.91,29.82,7,1,8,0.00
2014-12-21,44.2,33.4,25.0,22.8,16.9,12.8,71,53,28,29.91,29.62,8,1,10,0.00
2014-12-22,55.9,49.0,35.4,48.7,34.6,19.0,85,61,35,29.65,29.26,7,2,8,0.20
2014-12-23,57.6,55.2,51.3,55.4,53.0,44.6,98,92,78,29.38,29.17,5,0,6,0.17
2014-12-24,58.5,50.1,41.2,57.9,44.8,25.4,98,83,53,29.47,29.03,9,2,9,0.21
2014-12-25,47.3,40.6,32.2,30.3,23.0,16.0,77,51,29,29.79,29.38,8,2,9,0.00
2014-12-26,57.0,44.4,31.3,37.0,23.7,17.0,88,49,22,29.85,29.74,86,2,86,0.00
2014-12-27,52.7,49.4,46.2,37.5,28.8,17.1,59,45,29,29.82,29.71,11,2,11,0.00
2014-12-28,52.7,37.8,35.6,35.1,23.3,17.0,74,56,44,29.82,29.71,9,3,9,0.33
2014-12-29,41.0,35.0,30.7,20.7,15.3,10.4,57,45,29,29.97,29.76,10,4,10,0.00
2014-12-30,38.7,31.2,24.4,11.5,6.3,1.0,43,36,21,30.18,29.94,12,4,13,0.00
2014-12-31,33.1,24.3,19.6,5.8,-3.9,-8.6,44,29,20,30.18,29.91,7,2,8,0.00
2015-1-1,41.0,33.1,23.2,12.3,3.0,-7.2,35,28,21,29.97,29.74,8,2,10,0.00
2015-1-2,40.8,38.5,37.0,32.3,21.0,9.3,73,50,30,29.97,29.71,5,0,6,0.00